Weather History for Anchorage Merrill, AK

Change the Weather History Date:

Wednesday, April 9, 2014

  Actual Average Record
Temperature  
Mean Temperature 26 °F -  
Max Temperature 33 °F 40 °F 53 °F (1997)
Min Temperature 18 °F 25 °F 15 °F (2013)
Degree Days  
Heating Degree Days 40    
Moisture  
Dew Point 1 °F    
Average Humidity 36    
Maximum Humidity 44    
Minimum Humidity 28    
Precipitation  
Precipitation 0.00 in - - ()
Snow  
Snow 0.00 in - - ()
Snow Depth 3.00 in    
Sea Level Pressure  
Sea Level Pressure 29.77 in    
Wind  
Wind Speed 6 mph (North)    
Max Wind Speed 8 mph    
Max Gust Speed -    
Visibility 10 miles    
Events      
Averages and records for this station are not official NWS values.
T = Trace of Precipitation, MM = Missing Value Source: NWS Daily Summary

Daily Weather History Graph

Daily Weather History Graph

Search for Another Location

Airport:

Trip Planner

Search our weather history database for the weather conditions in past years. The results will help you decide how hot, cold, wet, or windy it might be!

Date:

Astronomy

Apr. 09, 2014 Rise Set
Actual Time 6:56 AM AKDT 9:06 PM AKDT
Civil Twilight 6:10 AM AKDT 9:53 PM AKDT
Nautical Twilight 5:09 AM AKDT 10:55 PM AKDT
Astronomical Twilight 3:48 AM AKDT 12:18 AM AKDT
Moon 2:44 PM AKDT (4/9) 5:15 AM AKDT (4/9)
Length of Visible Light 15h 43m
Length of Day
14h 09m
Waxing Gibbous, 73% of the Moon is Illuminated
Apr 9
Waxing Gibbous
Apr 14
Full
Apr 21
Last Quarter
Apr 28
New
May 6
First Quarter

Hourly Weather History & Observations

Time (AKDT) Temp. Windchill Dew Point Humidity Pressure Visibility Wind Dir Wind Speed Gust Speed Precip Events Conditions
12:53 AM 24.1 °F 16.0 °F -2.0 °F 32% 29.63 in 10.0 mi North 6.9 mph - N/A   Scattered Clouds
1:53 AM 23.0 °F 13.9 °F -2.9 °F 32% 29.65 in 10.0 mi North 8.1 mph - N/A   Scattered Clouds
2:53 AM 21.0 °F 12.4 °F -2.9 °F 35% 29.67 in 10.0 mi NW 6.9 mph - N/A   Partly Cloudy
3:53 AM 19.9 °F 11.1 °F -0.9 °F 40% 29.68 in 10.0 mi NNW 6.9 mph - N/A   Mostly Cloudy
4:53 AM 19.0 °F 11.1 °F -2.0 °F 40% 29.70 in 10.0 mi North 5.8 mph - N/A   Partly Cloudy
5:53 AM 19.0 °F 12.3 °F -2.0 °F 40% 29.72 in 10.0 mi NW 4.6 mph - N/A   Partly Cloudy
6:53 AM 18.0 °F 11.1 °F -2.0 °F 41% 29.73 in 10.0 mi NNE 4.6 mph - N/A   Clear
7:53 AM 18.0 °F 11.1 °F -0.9 °F 44% 29.73 in 10.0 mi NNE 4.6 mph - N/A   Clear
8:53 AM 19.0 °F 10.0 °F -2.0 °F 40% 29.75 in 10.0 mi North 6.9 mph - N/A   Clear
9:53 AM 21.0 °F 14.6 °F -2.0 °F 36% 29.77 in 10.0 mi North 4.6 mph - N/A   Clear
10:53 AM 23.0 °F 18.4 °F -0.0 °F 37% 29.78 in 10.0 mi Variable 3.5 mph - N/A   Clear
11:53 AM 24.1 °F 19.7 °F 1.9 °F 38% 29.80 in 10.0 mi Variable 3.5 mph - N/A   Clear
12:53 PM 26.1 °F 17.6 °F 3.0 °F 37% 29.81 in 10.0 mi North 8.1 mph - N/A   Clear
1:53 PM 28.0 °F 22.8 °F 3.9 °F 36% 29.81 in 10.0 mi Variable 4.6 mph - N/A   Clear
2:53 PM 30.0 °F 22.4 °F 5.0 °F 35% 29.82 in 10.0 mi North 8.1 mph - N/A   Clear
3:53 PM 32.0 °F 25.6 °F 7.0 °F 35% 29.81 in 10.0 mi North 6.9 mph - N/A   Clear
4:53 PM 33.1 °F 27.7 °F 6.1 °F 32% 29.80 in 10.0 mi Variable 5.8 mph - N/A   Clear
5:53 PM 32.0 °F 25.6 °F 6.1 °F 34% 29.80 in 10.0 mi North 6.9 mph - N/A   Clear
6:53 PM 33.1 °F 27.7 °F 3.0 °F 28% 29.80 in 10.0 mi North 5.8 mph - N/A   Clear
7:53 PM 32.0 °F 26.4 °F 1.9 °F 28% 29.81 in 10.0 mi North 5.8 mph - N/A   Clear
8:53 PM 30.9 °F 24.3 °F 3.0 °F 31% 29.82 in 10.0 mi North 6.9 mph - N/A   Clear
9:53 PM 28.9 °F 21.9 °F 3.0 °F 33% 29.84 in 10.0 mi North 6.9 mph - N/A   Clear
10:53 PM 27.0 °F 20.5 °F 3.0 °F 36% 29.86 in 10.0 mi NNE 5.8 mph - N/A   Clear
11:53 PM 26.1 °F 19.4 °F 3.0 °F 37% 29.87 in 10.0 mi NNW 5.8 mph - N/A   Clear